ZQ-2E DEB, 69634

Orbit data source: Space-Track

ZQ-2E DEB, 69634 is space debris in LEO originally from a launch on Tue, 09 Jun 2026 UTC launched from the Jiuquan Satellite Launch Center, China (JSC). Debris objects in space refer to the collection of defunct objects orbiting the Earth. Examples of debris include non-operational satellites, rocket bodies, and fragments generated from explosions, collisions, or faulty payload assembly.

Loading next visibility...
Identifier
69634, 2026-128J
Orbit
LEO
Country
Flag of CNCN / PRC
Related business
Flag of CNLandspace (CN)
Manufacturer
Lanjian Hangtian
Mission
Spacecraft
Bus & Motor
Unknown
Mass
Unknown
Launch date (UTC)
2026-06-09 (2 weeks ago)
Launch vehicle
Unknown
Launch site
Jiuquan Satellite Launch Center, China (JSC)
Object type
Payload
Rocket body
Debris
Shape & HBR
Unknown
Radar Cross Section
RCS unknown

Expand to show TLE details & history
Last TLE update: 10 hours ago

TLE from 10 hours ago
0 ZQ-2E DEB
1 69634U 26128J   26171.43210792  .00330165  42775-4  21048-2 0  9996
2 69634  54.5405 287.6170 0097507  12.2250 348.1119 15.69444153  1587
Epoch: 2026-06-20T10:22Z
TLE epoch observation values (Epoch: 2026-06-20T10:22:14.124Z)
Latitude
0.00002°
Longitude
-136.58865°
Altitude
297.283 km
Speed
7.767 km/s
True Right ascension
19h 10m 28s
True Declination
0° 00' 00"
Sunlit
Object was in full shadow at epoch
Visualization orbit readout
Latitude
Unknown
Longitude
Unknown
Altitude
Unknown
Speed
Unknown
Apparent Right ascension
Unknown
Apparent Declination
Unknown
Sunlit
N/A
Visualization observer readout
Local Sidereal Time
07:17:21
Azimuth
Unknown
Elevation
Unknown
Doppler factor
Unknown
Orbital elements
Apogee altitude
426.23 km
Perigee altitude
294.817 km
Semi-major axis
6,738.66 km
Eccentricity
0.00975
Inclination
54.5405°
RAAN
287.617°
Arg. of periapsis
12.225°
True anomaly
347.87895°
Mean anomaly
348.1119°
Eccentric anomaly
347.9957°
Mean motion
3.92358 °/min
Orbital period
91.75 mins
BSTAR
0.0021048
Loading maneuver chart data...
Computing Atmospheric mass density...
Loading historical data...
Loading historical data...
Loading historical data...
Loading historical data...
Loading historical data...
Loading historical data...
Loading historical data...

Documentation

Showing up to 5 results
|